User: anonymous   Login
Location: Bergnershof
(48.9468°N, 10.9431°E)
Time: 12:36:58
(UTC+00:00)
Language:

Cosmos 2218 Rocket - Orbit

View from above orbital plane
View from above orbital plane
View from above satellite
View from above satellite

Ground track
Ground track

The orbit data is extracted from the following two-line orbital elements,

1 22208U 92073B   21128.85839594  .00000014  00000-0 -17507-5 0  9991
2 22208  82.9216  45.7959 0035189  34.6924  29.1024 13.75161526431134
Epoch (UTC): 08 May 2021 20:36:05
Eccentricity: 0.0035189
inclination: 82.9216°
perigee height: 955 km
apogee height: 1007 km
right ascension of ascending node: 45.7959°
argument of perigee: 34.6924°
revolutions per day: 13.75161526
mean anomaly at epoch: 29.1024°
orbit number at epoch: 43113

The dashed part of the orbit path shows where the satellite is in the earth's shadow,  

DLR